Location: Newark
(25.1987°N, 100.3705°W)
Time: 12:33:45
(UTC+00:00)

ISS - Pass Details

Date: 08 April 2020
Orbit: 417 x 419 km, 51.6° (Epoch: 03 June)

Event Time Altitude Azimuth Distance (km) Brightness Sun altitude
Rises 02:49:14 0° 309° (NW) 2,353 1.3 -24.5°
Reaches altitude 10° 02:51:25 10° 301° (WNW) 1,487 0.1 -24.9°
Enters shadow 02:53:35 30° 271° (W) 775 -1.9 -25.4°
